Time,TemperatureF,DewpointF,PressureIn,WindDirection,WindDirectionDegrees,WindSpeedMPH,WindSpeedGustMPH,Humidity,HourlyPrecipIn,Conditions,Clouds,dailyrainin,SoftwareType,DateUTC
2013-03-02 00:01:00,0.3,-4.4,30.37,NNW,344,0.0,0.0,80,0.00,,---,0.00,VWS V14.01,2013-03-02 06:01:00,
2013-03-02 00:06:00,0.1,-4.7,30.37,NNW,344,0.0,0.0,80,0.00,,---,0.00,VWS V14.01,2013-03-02 06:06:00,
2013-03-02 00:11:00,-0.4,-5.3,30.37,NNW,344,0.0,0.0,79,0.00,,---,0.00,VWS V14.01,2013-03-02 06:11:00,
2013-03-02 00:16:00,-0.6,-5.5,30.36,NNW,344,0.0,0.0,79,0.00,,---,0.00,VWS V14.01,2013-03-02 06:16:00,
2013-03-02 00:21:00,-1.4,-6.6,30.36,NNW,344,0.0,0.0,78,0.00,,---,0.00,VWS V14.01,2013-03-02 06:21:00,
2013-03-02 00:26:00,-1.8,-7.0,30.36,NNW,344,0.0,0.0,78,0.00,,---,0.00,VWS V14.01,2013-03-02 06:26:00,
2013-03-02 00:31:00,-1.8,-6.7,30.37,NNW,344,0.0,0.0,79,0.00,,---,0.00,VWS V14.01,2013-03-02 06:31:00,
2013-03-02 00:36:00,-1.8,-6.7,30.37,NNW,344,0.0,0.0,79,0.00,,---,0.00,VWS V14.01,2013-03-02 06:36:00,
2013-03-02 00:41:00,-1.6,-6.5,30.37,NNW,344,0.0,0.0,79,0.00,,---,0.00,VWS V14.01,2013-03-02 06:41:00,
2013-03-02 00:46:00,-1.4,-6.3,30.37,NNW,344,0.0,0.0,79,0.00,,---,0.00,VWS V14.01,2013-03-02 06:46:00,
2013-03-02 00:51:00,-1.2,-6.1,30.37,NNW,344,0.0,0.0,79,0.00,,---,0.00,VWS V14.01,2013-03-02 06:51:00,
2013-03-02 00:56:00,-1.0,-5.9,30.37,NNW,344,0.0,0.0,79,0.00,,---,0.00,VWS V14.01,2013-03-02 06:56:00,
2013-03-02 01:01:00,-1.0,-5.9,30.37,NNW,344,0.0,0.0,79,0.00,,---,0.00,VWS V14.01,2013-03-02 07:01:00,
2013-03-02 01:06:00,-1.0,-5.9,30.37,NNW,344,0.0,0.0,79,0.00,,---,0.00,VWS V14.01,2013-03-02 07:06:00,
2013-03-02 01:11:00,-1.0,-5.9,30.37,NNW,344,0.0,0.0,79,0.00,,---,0.00,VWS V14.01,2013-03-02 07:11:00,
2013-03-02 01:16:00,-1.0,-5.9,30.37,NNW,344,0.0,0.0,79,0.00,,---,0.00,VWS V14.01,2013-03-02 07:16:00,
2013-03-02 01:21:00,-1.0,-5.9,30.37,NNW,344,0.0,0.0,79,0.00,,---,0.00,VWS V14.01,2013-03-02 07:21:00,
2013-03-02 01:26:00,-1.0,-5.9,30.37,NNW,344,0.0,0.0,79,0.00,,---,0.00,VWS V14.01,2013-03-02 07:26:00,
2013-03-02 01:31:00,-1.0,-5.9,30.37,NNW,344,0.0,0.0,79,0.00,,---,0.00,VWS V14.01,2013-03-02 07:31:00,
2013-03-02 01:36:00,-1.0,-5.9,30.37,NNW,344,0.0,0.0,79,0.00,,---,0.00,VWS V14.01,2013-03-02 07:36:00,
2013-03-02 01:41:00,-1.2,-6.1,30.37,NNW,344,0.0,0.0,79,0.00,,---,0.00,VWS V14.01,2013-03-02 07:41:00,
2013-03-02 01:46:00,-1.2,-6.1,30.36,NNW,344,0.0,0.0,79,0.00,,---,0.00,VWS V14.01,2013-03-02 07:46:00,
2013-03-02 01:51:00,-1.4,-6.3,30.36,NNW,344,0.0,0.0,79,0.00,,---,0.00,VWS V14.01,2013-03-02 07:51:00,
2013-03-02 01:56:00,-1.4,-6.3,30.36,NNW,344,0.0,0.0,79,0.00,,---,0.00,VWS V14.01,2013-03-02 07:56:00,
2013-03-02 02:01:00,-1.4,-6.6,30.35,NNW,344,0.0,0.0,78,0.00,,---,0.00,VWS V14.01,2013-03-02 08:01:00,
2013-03-02 02:06:00,-1.6,-6.8,30.35,NNW,344,0.0,0.0,78,0.00,,---,0.00,VWS V14.01,2013-03-02 08:06:00,
2013-03-02 02:11:00,-2.0,-7.2,30.35,NNW,344,0.0,0.0,78,0.00,,---,0.00,VWS V14.01,2013-03-02 08:11:00,
2013-03-02 02:16:00,-2.0,-7.2,30.35,NNW,344,0.0,0.0,78,0.00,,---,0.00,VWS V14.01,2013-03-02 08:16:00,
2013-03-02 02:21:00,-2.0,-7.2,30.35,NNW,344,0.0,0.0,78,0.00,,---,0.00,VWS V14.01,2013-03-02 08:21:00,
2013-03-02 02:26:00,-2.0,-6.9,30.35,NNW,344,0.0,0.0,79,0.00,,---,0.00,VWS V14.01,2013-03-02 08:26:00,
2013-03-02 02:31:00,-1.6,-6.5,30.35,NNW,344,0.0,0.0,79,0.00,,---,0.00,VWS V14.01,2013-03-02 08:31:00,
2013-03-02 02:36:00,-1.4,-6.3,30.35,NNW,344,0.0,0.0,79,0.00,,---,0.00,VWS V14.01,2013-03-02 08:36:00,
2013-03-02 02:41:00,-1.2,-6.1,30.35,NNW,344,0.0,0.0,79,0.00,,---,0.00,VWS V14.01,2013-03-02 08:41:00,
2013-03-02 02:46:00,-1.2,-6.1,30.35,NNW,344,0.0,0.0,79,0.00,,---,0.00,VWS V14.01,2013-03-02 08:46:00,
2013-03-02 02:51:00,-1.0,-5.9,30.35,NNW,344,0.0,0.0,79,0.00,,---,0.00,VWS V14.01,2013-03-02 08:51:00,
2013-03-02 02:56:00,-1.2,-6.4,30.35,NNW,344,0.0,0.0,78,0.00,,---,0.00,VWS V14.01,2013-03-02 08:56:00,
2013-03-02 03:01:00,-1.4,-6.3,30.35,NNW,344,0.0,0.0,79,0.00,,---,0.00,VWS V14.01,2013-03-02 09:01:00,
2013-03-02 03:06:00,-1.4,-6.6,30.35,NNW,344,0.0,0.0,78,0.00,,---,0.00,VWS V14.01,2013-03-02 09:06:00,
2013-03-02 03:11:00,-1.8,-7.0,30.35,NNW,344,0.0,0.0,78,0.00,,---,0.00,VWS V14.01,2013-03-02 09:11:00,
2013-03-02 03:16:00,-2.0,-7.2,30.35,NNW,344,0.0,0.0,78,0.00,,---,0.00,VWS V14.01,2013-03-02 09:16:00,
2013-03-02 03:21:00,-2.2,-7.4,30.35,NNW,344,0.0,0.0,78,0.00,,---,0.00,VWS V14.01,2013-03-02 09:21:00,
2013-03-02 03:26:00,-2.4,-7.6,30.35,NNW,344,0.0,0.0,78,0.00,,---,0.00,VWS V14.01,2013-03-02 09:26:00,
2013-03-02 03:31:00,-2.8,-8.2,30.35,NNW,344,0.0,0.0,77,0.00,,---,0.00,VWS V14.01,2013-03-02 09:31:00,
2013-03-02 03:36:00,-3.1,-8.5,30.35,NNW,344,0.0,0.0,77,0.00,,---,0.00,VWS V14.01,2013-03-02 09:36:00,
2013-03-02 03:41:00,-3.1,-8.2,30.35,NNW,344,0.0,0.0,78,0.00,,---,0.00,VWS V14.01,2013-03-02 09:41:00,
2013-03-02 03:46:00,-2.8,-8.2,30.34,NNW,344,0.0,0.0,77,0.00,,---,0.00,VWS V14.01,2013-03-02 09:46:00,
2013-03-02 03:51:00,-2.8,-8.2,30.34,NNW,344,0.0,0.0,77,0.00,,---,0.00,VWS V14.01,2013-03-02 09:51:00,
2013-03-02 03:56:00,-2.6,-7.8,30.34,NNW,344,0.0,0.0,78,0.00,,---,0.00,VWS V14.01,2013-03-02 09:56:00,
2013-03-02 04:01:00,-2.4,-7.6,30.33,NNW,344,0.0,0.0,78,0.00,,---,0.00,VWS V14.01,2013-03-02 10:01:00,
2013-03-02 04:06:00,-2.4,-7.6,30.33,NNW,344,0.0,0.0,78,0.00,,---,0.00,VWS V14.01,2013-03-02 10:06:00,
2013-03-02 04:11:00,-2.4,-7.6,30.33,NNW,344,0.0,0.0,78,0.00,,---,0.00,VWS V14.01,2013-03-02 10:11:00,
2013-03-02 04:16:00,-2.2,-7.4,30.34,NNW,344,0.0,0.0,78,0.00,,---,0.00,VWS V14.01,2013-03-02 10:16:00,
2013-03-02 04:21:00,-1.8,-7.0,30.34,NNW,344,0.0,0.0,78,0.00,,---,0.00,VWS V14.01,2013-03-02 10:21:00,
2013-03-02 04:26:00,-1.4,-6.6,30.34,NNW,344,0.0,0.0,78,0.00,,---,0.00,VWS V14.01,2013-03-02 10:26:00,
2013-03-02 04:31:00,-1.4,-6.6,30.33,NNW,344,0.0,0.0,78,0.00,,---,0.00,VWS V14.01,2013-03-02 10:31:00,
2013-03-02 04:36:00,-1.4,-6.6,30.33,NNW,344,0.0,0.0,78,0.00,,---,0.00,VWS V14.01,2013-03-02 10:36:00,
2013-03-02 04:41:00,-1.2,-6.4,30.33,NNW,344,0.0,0.0,78,0.00,,---,0.00,VWS V14.01,2013-03-02 10:41:00,
2013-03-02 04:46:00,-1.0,-6.2,30.33,NNW,344,0.0,0.0,78,0.00,,---,0.00,VWS V14.01,2013-03-02 10:46:00,
2013-03-02 04:51:00,-0.8,-6.0,30.33,NNW,344,0.0,0.0,78,0.00,,---,0.00,VWS V14.01,2013-03-02 10:51:00,
2013-03-02 04:56:00,-0.6,-5.5,30.33,NNW,344,0.0,0.0,79,0.00,,---,0.00,VWS V14.01,2013-03-02 10:56:00,
2013-03-02 05:01:00,-0.4,-5.3,30.32,NNW,344,0.0,0.0,79,0.00,,---,0.00,VWS V14.01,2013-03-02 11:01:00,
2013-03-02 05:06:00,-0.4,-5.3,30.32,NNW,344,0.0,0.0,79,0.00,,---,0.00,VWS V14.01,2013-03-02 11:06:00,
2013-03-02 05:11:00,-0.2,-5.2,30.32,NNW,344,0.0,0.0,79,0.00,,---,0.00,VWS V14.01,2013-03-02 11:11:00,
2013-03-02 05:16:00,-0.2,-5.2,30.34,NNW,344,0.0,0.0,79,0.00,,---,0.00,VWS V14.01,2013-03-02 11:16:00,
2013-03-02 05:21:00,-0.2,-5.2,30.34,NNW,344,0.0,0.0,79,0.00,,---,0.00,VWS V14.01,2013-03-02 11:21:00,
2013-03-02 05:26:00,-0.2,-4.9,30.34,NNW,344,0.0,0.0,79,0.00,,---,0.00,VWS V14.01,2013-03-02 11:26:00,
2013-03-02 05:31:00,0.1,-4.8,30.33,NNW,344,0.0,0.0,79,0.00,,---,0.00,VWS V14.01,2013-03-02 11:31:00,
2013-03-02 05:36:00,0.3,-4.7,30.33,NNW,344,0.0,0.0,79,0.00,,---,0.00,VWS V14.01,2013-03-02 11:36:00,
2013-03-02 05:41:00,0.5,-4.2,30.33,NNW,344,0.0,0.0,80,0.00,,---,0.00,VWS V14.01,2013-03-02 11:41:00,
2013-03-02 05:46:00,0.7,-4.0,30.33,NNW,344,0.0,0.0,80,0.00,,---,0.00,VWS V14.01,2013-03-02 11:46:00,
2013-03-02 05:51:00,0.9,-3.8,30.33,NNW,344,0.0,0.0,80,0.00,,---,0.00,VWS V14.01,2013-03-02 11:51:00,
2013-03-02 05:56:00,0.9,-3.8,30.33,NNW,344,0.0,0.0,80,0.00,,---,0.00,VWS V14.01,2013-03-02 11:56:00,
2013-03-02 06:01:00,0.9,-3.8,30.32,NNW,344,0.0,0.0,80,0.00,,---,0.00,VWS V14.01,2013-03-02 12:01:00,
2013-03-02 06:05:00,1.3,-3.4,30.32,NNW,344,0.0,0.0,80,0.00,,---,0.00,VWS V14.01,2013-03-02 12:05:00,
2013-03-02 06:10:00,1.5,-3.2,30.32,NNW,344,0.0,0.0,80,0.00,,---,0.00,VWS V14.01,2013-03-02 12:10:00,
2013-03-02 06:15:00,1.7,-3.0,30.33,NNW,344,0.0,0.0,80,0.00,,---,0.00,VWS V14.01,2013-03-02 12:15:00,
2013-03-02 06:20:00,1.8,-2.9,30.33,NNW,344,0.0,0.0,80,0.00,,---,0.00,VWS V14.01,2013-03-02 12:20:00,
2013-03-02 06:25:00,1.8,-2.9,30.33,NNW,344,0.0,0.0,80,0.00,,---,0.00,VWS V14.01,2013-03-02 12:25:00,
2013-03-02 06:30:00,2.0,-2.7,30.33,NNW,344,0.0,0.0,80,0.00,,---,0.00,VWS V14.01,2013-03-02 12:30:00,
2013-03-02 06:35:00,2.2,-2.3,30.33,NNW,344,0.0,0.0,81,0.00,,---,0.00,VWS V14.01,2013-03-02 12:35:00,
2013-03-02 06:40:00,2.4,-2.1,30.33,NNW,344,0.0,0.0,81,0.00,,---,0.00,VWS V14.01,2013-03-02 12:40:00,
2013-03-02 06:46:00,2.6,-1.9,30.32,NNW,344,0.0,0.0,81,0.00,,---,0.00,VWS V14.01,2013-03-02 12:46:00,
2013-03-02 06:51:00,2.8,-1.7,30.32,NNW,344,0.0,0.0,81,0.00,,---,0.00,VWS V14.01,2013-03-02 12:51:00,
2013-03-02 06:56:00,3.5,-1.0,30.32,NNW,344,2.0,2.0,81,0.00,,---,0.00,VWS V14.01,2013-03-02 12:56:00,
2013-03-02 07:01:00,4.1,-0.2,30.31,NNW,344,0.0,0.0,82,0.00,,---,0.00,VWS V14.01,2013-03-02 13:01:00,
2013-03-02 07:06:00,4.3,0.0,30.31,NNW,344,1.0,3.0,82,0.00,,---,0.00,VWS V14.01,2013-03-02 13:06:00,
2013-03-02 07:11:00,4.5,0.2,30.31,NNW,344,0.0,3.0,82,0.00,,---,0.00,VWS V14.01,2013-03-02 13:11:00,
2013-03-02 07:16:00,4.5,0.2,30.31,NNW,344,1.0,4.0,82,0.00,,---,0.00,VWS V14.01,2013-03-02 13:16:00,
2013-03-02 07:21:00,4.7,0.4,30.31,NNW,344,2.0,4.0,82,0.00,,---,0.00,VWS V14.01,2013-03-02 13:21:00,
2013-03-02 07:26:00,4.7,0.4,30.31,NNW,345,3.0,4.0,82,0.00,,---,0.00,VWS V14.01,2013-03-02 13:26:00,
2013-03-02 07:31:00,5.0,0.7,30.30,NNW,345,2.0,3.0,82,0.00,,---,0.00,VWS V14.01,2013-03-02 13:31:00,
2013-03-02 07:36:00,5.6,1.6,30.30,NNW,345,3.0,4.0,83,0.00,,---,0.00,VWS V14.01,2013-03-02 13:36:00,
2013-03-02 07:41:00,6.0,2.0,30.30,NNW,345,2.0,5.0,83,0.00,,---,0.00,VWS V14.01,2013-03-02 13:41:00,
2013-03-02 07:46:00,6.1,1.8,30.29,East,82,4.0,6.0,82,0.00,,---,0.00,VWS V14.01,2013-03-02 13:46:00,
2013-03-02 07:51:00,6.3,2.2,30.29,East,96,4.0,7.0,83,0.00,,---,0.00,VWS V14.01,2013-03-02 13:51:00,
2013-03-02 07:56:00,6.3,2.2,30.29,ESE,105,6.0,7.0,83,0.00,,---,0.00,VWS V14.01,2013-03-02 13:56:00,
2013-03-02 08:01:00,6.1,1.8,30.29,ESE,111,5.0,6.0,82,0.00,,---,0.00,VWS V14.01,2013-03-02 14:01:00,
2013-03-02 08:06:00,6.1,2.1,30.29,ESE,111,4.0,6.0,83,0.00,,---,0.00,VWS V14.01,2013-03-02 14:06:00,
2013-03-02 08:11:00,6.1,1.8,30.29,ESE,114,3.0,6.0,82,0.00,,---,0.00,VWS V14.01,2013-03-02 14:11:00,
2013-03-02 08:16:00,6.0,1.7,30.31,ESE,115,4.0,6.0,82,0.00,,---,0.00,VWS V14.01,2013-03-02 14:16:00,
2013-03-02 08:21:00,6.1,2.1,30.31,SE,124,4.0,6.0,83,0.00,,---,0.00,VWS V14.01,2013-03-02 14:21:00,
2013-03-02 08:26:00,6.5,2.5,30.31,SE,139,3.0,6.0,83,0.00,,---,0.00,VWS V14.01,2013-03-02 14:26:00,
2013-03-02 08:31:00,7.0,2.9,30.30,SE,141,3.0,6.0,83,0.00,,---,0.00,VWS V14.01,2013-03-02 14:31:00,
2013-03-02 08:36:00,7.6,3.8,30.30,SE,141,3.0,6.0,84,0.00,,---,0.00,VWS V14.01,2013-03-02 14:36:00,
2013-03-02 08:41:00,8.1,4.3,30.30,SE,141,3.0,6.0,84,0.00,,---,0.00,VWS V14.01,2013-03-02 14:41:00,
2013-03-02 08:46:00,8.6,4.8,30.30,SE,141,3.0,6.0,84,0.00,,---,0.00,VWS V14.01,2013-03-02 14:46:00,
2013-03-02 08:51:00,9.2,5.4,30.30,SE,141,3.0,6.0,84,0.00,,---,0.00,VWS V14.01,2013-03-02 14:51:00,
2013-03-02 08:56:00,9.7,5.8,30.30,SE,139,5.0,6.0,84,0.00,,---,0.00,VWS V14.01,2013-03-02 14:56:00,
2013-03-02 09:01:00,10.2,6.6,30.28,SE,139,3.0,5.0,85,0.00,,---,0.00,VWS V14.01,2013-03-02 15:01:00,
2013-03-02 09:06:00,10.5,6.9,30.28,SE,139,4.0,5.0,85,0.00,,---,0.00,VWS V14.01,2013-03-02 15:06:00,
2013-03-02 09:11:00,11.4,8.0,30.28,SE,139,5.0,5.0,86,0.00,,---,0.00,VWS V14.01,2013-03-02 15:11:00,
2013-03-02 09:16:00,12.1,8.7,30.28,SE,141,6.0,6.0,86,0.00,,---,0.00,VWS V14.01,2013-03-02 15:16:00,
2013-03-02 09:20:00,12.9,9.5,30.28,SE,146,6.0,7.0,86,0.00,,---,0.00,VWS V14.01,2013-03-02 15:20:00,
2013-03-02 09:25:00,13.6,10.5,30.28,SE,146,2.0,7.0,87,0.00,,---,0.00,VWS V14.01,2013-03-02 15:25:00,
2013-03-02 09:31:00,14.1,10.9,30.27,SE,146,4.0,7.0,87,0.00,,---,0.00,VWS V14.01,2013-03-02 15:31:00,
2013-03-02 09:36:00,14.1,10.9,30.27,SE,146,7.0,7.0,87,0.00,,---,0.00,VWS V14.01,2013-03-02 15:36:00,
2013-03-02 09:41:00,14.0,10.6,30.27,SE,146,4.0,9.0,86,0.00,,---,0.00,VWS V14.01,2013-03-02 15:41:00,
2013-03-02 09:46:00,14.0,10.9,30.29,SE,146,5.0,9.0,87,0.00,,---,0.00,VWS V14.01,2013-03-02 15:46:00,
2013-03-02 09:51:00,14.3,11.1,30.29,SSE,154,3.0,9.0,87,0.00,,---,0.00,VWS V14.01,2013-03-02 15:51:00,
2013-03-02 09:55:00,14.4,11.2,30.29,SSE,154,3.0,9.0,87,0.00,,---,0.00,VWS V14.01,2013-03-02 15:55:00,
2013-03-02 10:01:00,14.9,11.7,30.28,SSE,154,4.0,6.0,87,0.00,,---,0.00,VWS V14.01,2013-03-02 16:01:00,
2013-03-02 10:05:00,15.2,12.0,30.28,SSE,155,6.0,7.0,87,0.00,,---,0.00,VWS V14.01,2013-03-02 16:05:00,
2013-03-02 10:10:00,15.1,11.9,30.28,SSE,155,5.0,9.0,87,0.00,,---,0.00,VWS V14.01,2013-03-02 16:10:00,
2013-03-02 10:15:00,15.1,11.9,30.28,SSE,155,4.0,9.0,87,0.00,,---,0.00,VWS V14.01,2013-03-02 16:15:00,
2013-03-02 10:20:00,15.2,12.0,30.28,SSE,156,9.0,11.0,87,0.00,,---,0.00,VWS V14.01,2013-03-02 16:20:00,
2013-03-02 10:26:00,15.2,12.0,30.28,SSE,156,5.0,11.0,87,0.00,,---,0.00,VWS V14.01,2013-03-02 16:26:00,
2013-03-02 10:30:00,15.6,11.6,30.27,SSE,150,6.0,9.0,84,0.00,,---,0.00,VWS V14.01,2013-03-02 16:30:00,
2013-03-02 10:36:00,15.9,12.7,30.27,SE,143,8.0,13.0,87,0.00,,---,0.00,VWS V14.01,2013-03-02 16:36:00,
2013-03-02 10:41:00,16.1,12.9,30.27,SSE,153,6.0,13.0,87,0.00,,---,0.00,VWS V14.01,2013-03-02 16:41:00,
2013-03-02 10:45:00,16.2,13.0,30.27,SE,146,8.0,13.0,87,0.00,,---,0.00,VWS V14.01,2013-03-02 16:45:00,
2013-03-02 10:50:00,16.4,13.2,30.27,SSE,148,5.0,13.0,87,0.00,,---,0.00,VWS V14.01,2013-03-02 16:50:00,
2013-03-02 10:55:00,16.5,13.3,30.27,SSE,156,12.0,13.0,87,0.00,,---,0.00,VWS V14.01,2013-03-02 16:55:00,
2013-03-02 11:00:00,16.7,13.5,30.25,SSE,155,8.0,10.0,87,0.00,,---,0.00,VWS V14.01,2013-03-02 17:00:00,
2013-03-02 11:05:00,16.9,13.4,30.25,SSE,148,11.0,12.0,86,0.00,,---,0.00,VWS V14.01,2013-03-02 17:05:00,
2013-03-02 11:10:00,17.2,13.7,30.25,SSE,149,10.0,13.0,86,0.00,,---,0.00,VWS V14.01,2013-03-02 17:10:00,
2013-03-02 11:15:00,17.3,13.8,30.26,SE,145,11.0,13.0,86,0.00,,---,0.00,VWS V14.01,2013-03-02 17:15:00,
2013-03-02 11:20:00,17.7,14.2,30.26,SSE,150,6.0,13.0,86,0.00,,---,0.00,VWS V14.01,2013-03-02 17:20:00,
2013-03-02 11:25:00,17.8,14.1,30.26,SSE,158,8.0,13.0,85,0.00,,---,0.00,VWS V14.01,2013-03-02 17:25:00,
2013-03-02 11:30:00,17.8,13.8,30.26,SSE,158,3.0,7.0,84,0.00,,---,0.00,VWS V14.01,2013-03-02 17:30:00,
2013-03-02 11:35:00,18.3,14.0,30.26,SSE,162,8.0,11.0,83,0.00,,---,0.00,VWS V14.01,2013-03-02 17:35:00,
2013-03-02 11:40:00,18.6,14.3,30.26,SSE,157,10.0,13.0,83,0.00,,---,0.00,VWS V14.01,2013-03-02 17:40:00,
2013-03-02 11:45:00,18.8,14.2,30.26,SSE,158,6.0,13.0,82,0.00,,---,0.00,VWS V14.01,2013-03-02 17:45:00,
2013-03-02 11:50:00,19.1,14.2,30.26,SSE,158,11.0,13.0,81,0.00,,---,0.00,VWS V14.01,2013-03-02 17:50:00,
2013-03-02 11:56:00,19.4,14.5,30.26,SSE,154,11.0,13.0,81,0.00,,---,0.00,VWS V14.01,2013-03-02 17:56:00,
2013-03-02 12:00:00,19.5,14.4,30.25,SSE,155,6.0,10.0,80,0.00,,---,0.00,VWS V14.01,2013-03-02 18:00:00,
2013-03-02 12:06:00,19.7,14.5,30.25,SSE,152,10.0,13.0,80,0.00,,---,0.00,VWS V14.01,2013-03-02 18:06:00,
2013-03-02 12:11:00,19.9,14.7,30.25,SSE,160,6.0,13.0,80,0.00,,---,0.00,VWS V14.01,2013-03-02 18:11:00,
2013-03-02 12:16:00,20.0,14.3,30.25,SSE,162,9.0,13.0,78,0.00,,---,0.00,VWS V14.01,2013-03-02 18:16:00,
2013-03-02 12:21:00,20.6,14.8,30.25,South,173,11.0,15.0,78,0.00,,---,0.00,VWS V14.01,2013-03-02 18:21:00,
2013-03-02 12:26:00,21.0,14.9,30.25,South,170,13.0,19.0,77,0.00,,---,0.00,VWS V14.01,2013-03-02 18:26:00,
2013-03-02 12:31:00,20.8,14.7,30.23,SSE,165,12.0,14.0,77,0.00,,---,0.00,VWS V14.01,2013-03-02 18:31:00,
2013-03-02 12:36:00,21.0,14.9,30.23,SSE,161,5.0,15.0,77,0.00,,---,0.00,VWS V14.01,2013-03-02 18:36:00,
2013-03-02 12:40:00,21.3,15.2,30.23,SSE,156,11.0,15.0,77,0.00,,---,0.00,VWS V14.01,2013-03-02 18:40:00,
2013-03-02 12:45:00,21.3,15.2,30.23,SSE,155,5.0,15.0,77,0.00,,---,0.00,VWS V14.01,2013-03-02 18:45:00,
2013-03-02 12:50:00,21.9,15.8,30.23,SSE,156,8.0,15.0,77,0.00,,---,0.00,VWS V14.01,2013-03-02 18:50:00,
2013-03-02 12:55:00,21.6,15.2,30.23,SSE,153,12.0,15.0,76,0.00,,---,0.00,VWS V14.01,2013-03-02 18:55:00,
2013-03-02 13:00:00,21.6,15.2,30.23,SSE,151,7.0,11.0,76,0.00,,---,0.00,VWS V14.01,2013-03-02 19:00:00,
2013-03-02 13:05:00,21.6,15.5,30.23,SE,146,7.0,13.0,77,0.00,,---,0.00,VWS V14.01,2013-03-02 19:05:00,
2013-03-02 13:10:00,21.6,15.2,30.23,SE,146,16.0,16.0,76,0.00,,---,0.00,VWS V14.01,2013-03-02 19:10:00,
2013-03-02 13:15:00,21.6,15.2,30.21,SSE,159,12.0,16.0,76,0.00,,---,0.00,VWS V14.01,2013-03-02 19:15:00,
2013-03-02 13:20:00,21.8,15.7,30.21,SSE,148,7.0,16.0,77,0.00,,---,0.00,VWS V14.01,2013-03-02 19:20:00,
2013-03-02 13:25:00,22.1,15.4,30.21,SSE,154,12.0,16.0,75,0.00,,---,0.00,VWS V14.01,2013-03-02 19:25:00,
2013-03-02 13:30:00,21.9,14.9,30.21,SSE,154,7.0,11.0,74,0.00,,---,0.00,VWS V14.01,2013-03-02 19:30:00,
2013-03-02 13:35:00,22.2,15.2,30.21,SSE,158,10.0,13.0,74,0.00,,---,0.00,VWS V14.01,2013-03-02 19:35:00,
2013-03-02 13:40:00,22.2,14.9,30.21,SSE,154,10.0,14.0,73,0.00,,---,0.00,VWS V14.01,2013-03-02 19:40:00,
2013-03-02 13:45:00,22.5,15.5,30.20,SSE,148,11.0,16.0,74,0.00,,---,0.00,VWS V14.01,2013-03-02 19:45:00,
2013-03-02 13:50:00,22.5,15.5,30.20,SSE,155,9.0,16.0,74,0.00,,---,0.00,VWS V14.01,2013-03-02 19:50:00,
2013-03-02 13:55:00,22.7,16.0,30.20,SE,146,6.0,16.0,75,0.00,,---,0.00,VWS V14.01,2013-03-02 19:55:00,
2013-03-02 14:00:00,23.0,16.6,30.18,SSE,157,9.0,12.0,76,0.00,,---,0.00,VWS V14.01,2013-03-02 20:00:00,
2013-03-02 14:05:00,23.0,16.3,30.18,SSE,162,9.0,14.0,75,0.00,,---,0.00,VWS V14.01,2013-03-02 20:05:00,
2013-03-02 14:10:00,23.2,16.5,30.18,SSE,153,11.0,15.0,75,0.00,,---,0.00,VWS V14.01,2013-03-02 20:10:00,
2013-03-02 14:15:00,23.3,16.6,30.18,SSE,160,5.0,15.0,75,0.00,,---,0.00,VWS V14.01,2013-03-02 20:15:00,
2013-03-02 14:20:00,23.5,16.8,30.18,SSE,161,10.0,15.0,75,0.00,,---,0.00,VWS V14.01,2013-03-02 20:20:00,
2013-03-02 14:25:00,23.6,17.2,30.18,SSE,154,7.0,15.0,76,0.00,,---,0.00,VWS V14.01,2013-03-02 20:25:00,
2013-03-02 14:30:00,23.9,17.1,30.17,SSE,155,10.0,13.0,75,0.00,,---,0.00,VWS V14.01,2013-03-02 20:30:00,
2013-03-02 14:35:00,24.1,17.6,30.17,SSE,158,7.0,13.0,76,0.00,,---,0.00,VWS V14.01,2013-03-02 20:35:00,
2013-03-02 14:40:00,24.4,17.9,30.17,SSE,152,10.0,13.0,76,0.00,,---,0.00,VWS V14.01,2013-03-02 20:40:00,
2013-03-02 14:45:00,24.4,17.6,30.16,SSE,156,10.0,14.0,75,0.00,,---,0.00,VWS V14.01,2013-03-02 20:45:00,
2013-03-02 14:50:00,24.7,17.9,30.16,SSE,157,11.0,14.0,75,0.00,,---,0.00,VWS V14.01,2013-03-02 20:50:00,
2013-03-02 14:55:00,24.7,17.9,30.16,SSE,152,11.0,14.0,75,0.00,,---,0.00,VWS V14.01,2013-03-02 20:55:00,
2013-03-02 15:00:00,24.8,17.7,30.15,SSE,151,13.0,13.0,74,0.00,,---,0.00,VWS V14.01,2013-03-02 21:00:00,
2013-03-02 15:05:00,24.7,17.3,30.15,SSE,161,13.0,13.0,73,0.00,,---,0.00,VWS V14.01,2013-03-02 21:05:00,
2013-03-02 15:10:00,24.7,17.3,30.15,SSE,155,7.0,13.0,73,0.00,,---,0.00,VWS V14.01,2013-03-02 21:10:00,
2013-03-02 15:15:00,24.8,17.7,30.16,SSE,158,10.0,13.0,74,0.00,,---,0.00,VWS V14.01,2013-03-02 21:15:00,
2013-03-02 15:20:00,24.8,17.7,30.16,SSE,160,9.0,14.0,74,0.00,,---,0.00,VWS V14.01,2013-03-02 21:20:00,
2013-03-02 15:25:00,24.7,17.6,30.16,SSE,155,10.0,15.0,74,0.00,,---,0.00,VWS V14.01,2013-03-02 21:25:00,
2013-03-02 15:30:00,24.7,17.6,30.15,SSE,155,9.0,12.0,74,0.00,,---,0.00,VWS V14.01,2013-03-02 21:30:00,
2013-03-02 15:35:00,24.7,17.6,30.15,SSE,155,11.0,14.0,74,0.00,,---,0.00,VWS V14.01,2013-03-02 21:35:00,
2013-03-02 15:40:00,24.8,18.0,30.15,SSE,155,8.0,14.0,75,0.00,,---,0.00,VWS V14.01,2013-03-02 21:40:00,
2013-03-02 15:45:00,25.0,18.2,30.15,SSE,155,11.0,14.0,75,0.00,,---,0.00,VWS V14.01,2013-03-02 21:45:00,
2013-03-02 15:50:00,25.0,18.2,30.15,SSE,157,14.0,14.0,75,0.00,,---,0.00,VWS V14.01,2013-03-02 21:50:00,
2013-03-02 15:55:00,25.0,17.9,30.15,SSE,158,10.0,14.0,74,0.00,,---,0.00,VWS V14.01,2013-03-02 21:55:00,
2013-03-02 16:00:00,25.1,18.3,30.14,SSE,151,6.0,13.0,75,0.00,,---,0.00,VWS V14.01,2013-03-02 22:00:00,
2013-03-02 16:05:00,25.1,17.7,30.14,SSE,148,11.0,15.0,73,0.00,,---,0.00,VWS V14.01,2013-03-02 22:05:00,
2013-03-02 16:10:00,25.3,18.2,30.14,SSE,153,9.0,15.0,74,0.00,,---,0.00,VWS V14.01,2013-03-02 22:10:00,
2013-03-02 16:15:00,25.4,18.3,30.13,SSE,155,10.0,15.0,74,0.00,,---,0.00,VWS V14.01,2013-03-02 22:15:00,
2013-03-02 16:20:00,25.4,18.3,30.13,SSE,155,8.0,15.0,74,0.00,,---,0.00,VWS V14.01,2013-03-02 22:20:00,
2013-03-02 16:25:00,25.8,18.4,30.13,SSE,159,10.0,15.0,73,0.00,,---,0.00,VWS V14.01,2013-03-02 22:25:00,
2013-03-02 16:30:00,25.8,18.0,30.13,SSE,159,10.0,12.0,72,0.00,,---,0.00,VWS V14.01,2013-03-02 22:30:00,
2013-03-02 16:35:00,25.7,17.6,30.13,SSE,151,6.0,14.0,71,0.00,,---,0.00,VWS V14.01,2013-03-02 22:35:00,
2013-03-02 16:40:00,25.6,17.5,30.13,SSE,156,9.0,14.0,71,0.00,,---,0.00,VWS V14.01,2013-03-02 22:40:00,
2013-03-02 16:45:00,25.3,17.5,30.12,SSE,147,9.0,14.0,72,0.00,,---,0.00,VWS V14.01,2013-03-02 22:45:00,
2013-03-02 16:50:00,25.0,17.3,30.12,SSE,150,10.0,14.0,72,0.00,,---,0.00,VWS V14.01,2013-03-02 22:50:00,
2013-03-02 16:55:00,24.7,17.0,30.12,SSE,153,5.0,14.0,72,0.00,,---,0.00,VWS V14.01,2013-03-02 22:55:00,
2013-03-02 17:00:00,24.7,17.3,30.13,SSE,160,5.0,9.0,73,0.00,,---,0.00,VWS V14.01,2013-03-02 23:00:00,
2013-03-02 17:05:00,24.5,17.1,30.13,SSE,160,6.0,10.0,73,0.00,,---,0.00,VWS V14.01,2013-03-02 23:05:00,
2013-03-02 17:10:00,24.5,17.1,30.13,SSE,160,5.0,10.0,73,0.00,,---,0.00,VWS V14.01,2013-03-02 23:10:00,
2013-03-02 17:15:00,24.5,17.4,30.13,SSE,163,4.0,10.0,74,0.00,,---,0.00,VWS V14.01,2013-03-02 23:15:00,
2013-03-02 17:20:00,24.5,17.4,30.13,SSE,165,7.0,11.0,74,0.00,,---,0.00,VWS V14.01,2013-03-02 23:20:00,
2013-03-02 17:25:00,24.5,17.4,30.13,SSE,165,4.0,11.0,74,0.00,,---,0.00,VWS V14.01,2013-03-02 23:25:00,
2013-03-02 17:30:00,24.5,17.7,30.13,SSE,163,6.0,9.0,75,0.00,,---,0.00,VWS V14.01,2013-03-02 23:30:00,
2013-03-02 17:35:00,24.5,17.7,30.13,South,169,8.0,12.0,75,0.00,,---,0.00,VWS V14.01,2013-03-02 23:35:00,
2013-03-02 17:40:00,24.4,17.6,30.13,South,169,6.0,12.0,75,0.00,,---,0.00,VWS V14.01,2013-03-02 23:40:00,
2013-03-02 17:45:00,24.4,17.9,30.13,South,169,10.0,12.0,76,0.00,,---,0.00,VWS V14.01,2013-03-02 23:45:00,
2013-03-02 17:50:00,24.4,17.9,30.13,SSE,165,10.0,12.0,76,0.00,,---,0.00,VWS V14.01,2013-03-02 23:50:00,
2013-03-02 17:55:00,24.4,17.9,30.13,SSE,167,5.0,12.0,76,0.00,,---,0.00,VWS V14.01,2013-03-02 23:55:00,
2013-03-02 18:00:00,24.4,18.2,30.13,SSE,166,5.0,10.0,77,0.00,,---,0.00,VWS V14.01,2013-03-03 00:00:00,
2013-03-02 18:05:00,24.4,18.2,30.13,SSE,166,6.0,11.0,77,0.00,,---,0.00,VWS V14.01,2013-03-03 00:05:00,
2013-03-02 18:10:00,24.2,18.0,30.13,SSE,162,4.0,12.0,77,0.00,,---,0.00,VWS V14.01,2013-03-03 00:10:00,
2013-03-02 18:15:00,24.1,18.0,30.11,SSE,163,6.0,12.0,77,0.00,,---,0.00,VWS V14.01,2013-03-03 00:15:00,
2013-03-02 18:20:00,23.8,18.0,30.11,SSE,167,10.0,13.0,78,0.00,,---,0.00,VWS V14.01,2013-03-03 00:20:00,
2013-03-02 18:25:00,23.6,17.8,30.11,SSE,161,6.0,14.0,78,0.00,,---,0.00,VWS V14.01,2013-03-03 00:25:00,
2013-03-02 18:30:00,23.5,17.7,30.10,SSE,167,9.0,9.0,78,0.00,,---,0.00,VWS V14.01,2013-03-03 00:30:00,
2013-03-02 18:35:00,23.3,17.8,30.10,SSE,167,4.0,10.0,79,0.00,,---,0.00,VWS V14.01,2013-03-03 00:35:00,
2013-03-02 18:40:00,23.2,17.7,30.10,SSE,165,3.0,10.0,79,0.00,,---,0.00,VWS V14.01,2013-03-03 00:40:00,
2013-03-02 18:45:00,23.0,17.8,30.11,SSE,164,5.0,10.0,80,0.00,,---,0.00,VWS V14.01,2013-03-03 00:45:00,
2013-03-02 18:50:00,22.9,17.7,30.11,SSE,160,5.0,10.0,80,0.00,,---,0.00,VWS V14.01,2013-03-03 00:50:00,
2013-03-02 18:55:00,22.5,17.3,30.11,SSE,160,7.0,10.0,80,0.00,,---,0.00,VWS V14.01,2013-03-03 00:55:00,
2013-03-02 19:00:00,22.5,17.3,30.11,SSE,160,6.0,7.0,80,0.00,,---,0.00,VWS V14.01,2013-03-03 01:00:00,
2013-03-02 19:05:00,22.5,17.3,30.11,SSE,161,7.0,10.0,80,0.00,,---,0.00,VWS V14.01,2013-03-03 01:05:00,
2013-03-02 19:10:00,22.5,17.6,30.11,SSE,159,6.0,10.0,81,0.00,,---,0.00,VWS V14.01,2013-03-03 01:10:00,
2013-03-02 19:15:00,22.4,17.2,30.12,SSE,158,4.0,10.0,80,0.00,,---,0.00,VWS V14.01,2013-03-03 01:15:00,
2013-03-02 19:20:00,22.4,17.5,30.12,SSE,158,6.0,10.0,81,0.00,,---,0.00,VWS V14.01,2013-03-03 01:20:00,
2013-03-02 19:25:00,22.2,17.3,30.12,SSE,157,6.0,10.0,81,0.00,,---,0.00,VWS V14.01,2013-03-03 01:25:00,
2013-03-02 19:30:00,22.2,17.3,30.12,SSE,155,5.0,7.0,81,0.00,,---,0.00,VWS V14.01,2013-03-03 01:30:00,
2013-03-02 19:35:00,22.1,17.2,30.12,SSE,153,9.0,9.0,81,0.00,,---,0.00,VWS V14.01,2013-03-03 01:35:00,
2013-03-02 19:40:00,22.1,17.2,30.12,SSE,153,6.0,9.0,81,0.00,,---,0.00,VWS V14.01,2013-03-03 01:40:00,
2013-03-02 19:45:00,22.1,17.2,30.11,SSE,153,5.0,9.0,81,0.00,,---,0.00,VWS V14.01,2013-03-03 01:45:00,
2013-03-02 19:50:00,21.9,17.0,30.11,SSE,153,4.0,9.0,81,0.00,,---,0.00,VWS V14.01,2013-03-03 01:50:00,
2013-03-02 19:55:00,21.9,17.0,30.11,SSE,153,6.0,9.0,81,0.00,,---,0.00,VWS V14.01,2013-03-03 01:55:00,
2013-03-02 20:00:00,21.9,17.0,30.11,SSE,155,4.0,7.0,81,0.00,,---,0.00,VWS V14.01,2013-03-03 02:00:00,
2013-03-02 20:05:00,21.6,16.7,30.11,SSE,155,6.0,9.0,81,0.00,,---,0.00,VWS V14.01,2013-03-03 02:05:00,
2013-03-02 20:10:00,21.3,16.4,30.11,SSE,155,5.0,9.0,81,0.00,,---,0.00,VWS V14.01,2013-03-03 02:10:00,
2013-03-02 20:15:00,21.0,16.4,30.10,SSE,151,5.0,10.0,82,0.00,,---,0.00,VWS V14.01,2013-03-03 02:15:00,
2013-03-02 20:20:00,21.0,16.4,30.10,SSE,153,4.0,10.0,82,0.00,,---,0.00,VWS V14.01,2013-03-03 02:20:00,
2013-03-02 20:25:00,21.1,16.5,30.10,SSE,152,5.0,10.0,82,0.00,,---,0.00,VWS V14.01,2013-03-03 02:25:00,
2013-03-02 20:30:00,21.3,16.7,30.08,SSE,150,9.0,11.0,82,0.00,,---,0.00,VWS V14.01,2013-03-03 02:30:00,
2013-03-02 20:35:00,21.3,16.7,30.08,SSE,152,7.0,12.0,82,0.00,,---,0.00,VWS V14.01,2013-03-03 02:35:00,
2013-03-02 20:40:00,21.3,16.7,30.08,SSE,151,7.0,12.0,82,0.00,,---,0.00,VWS V14.01,2013-03-03 02:40:00,
2013-03-02 20:45:00,21.4,16.8,30.07,SSE,155,8.0,13.0,82,0.00,,---,0.00,VWS V14.01,2013-03-03 02:45:00,
2013-03-02 20:50:00,21.1,16.2,30.07,SSE,150,7.0,13.0,81,0.00,,---,0.00,VWS V14.01,2013-03-03 02:50:00,
2013-03-02 20:55:00,21.1,16.2,30.07,SSE,148,7.0,13.0,81,0.00,,---,0.00,VWS V14.01,2013-03-03 02:55:00,
2013-03-02 21:00:00,20.8,15.9,30.08,SSE,148,7.0,10.0,81,0.00,,---,0.00,VWS V14.01,2013-03-03 03:00:00,
2013-03-02 21:05:00,20.6,16.0,30.08,SSE,148,7.0,12.0,82,0.00,,---,0.00,VWS V14.01,2013-03-03 03:05:00,
2013-03-02 21:10:00,20.6,16.0,30.08,SSE,148,8.0,12.0,82,0.00,,---,0.00,VWS V14.01,2013-03-03 03:10:00,
2013-03-02 21:15:00,20.5,15.9,30.07,SSE,148,9.0,12.0,82,0.00,,---,0.00,VWS V14.01,2013-03-03 03:15:00,
2013-03-02 21:20:00,20.5,15.9,30.07,SE,143,7.0,12.0,82,0.00,,---,0.00,VWS V14.01,2013-03-03 03:20:00,
2013-03-02 21:25:00,20.5,16.2,30.07,SE,141,10.0,12.0,83,0.00,,---,0.00,VWS V14.01,2013-03-03 03:25:00,
2013-03-02 21:30:00,20.5,16.2,30.07,SE,141,8.0,9.0,83,0.00,,---,0.00,VWS V14.01,2013-03-03 03:30:00,
2013-03-02 21:35:00,20.5,16.2,30.07,SE,141,8.0,11.0,83,0.00,,---,0.00,VWS V14.01,2013-03-03 03:35:00,
2013-03-02 21:40:00,20.3,16.0,30.07,SE,142,5.0,11.0,83,0.00,,---,0.00,VWS V14.01,2013-03-03 03:40:00,
2013-03-02 21:45:00,20.5,16.4,30.06,SE,146,4.0,11.0,84,0.00,,---,0.00,VWS V14.01,2013-03-03 03:45:00,
2013-03-02 21:50:00,20.5,16.4,30.06,SSE,149,6.0,11.0,84,0.00,,---,0.00,VWS V14.01,2013-03-03 03:50:00,
2013-03-02 21:55:00,20.5,16.4,30.06,SSE,148,5.0,11.0,84,0.00,,---,0.00,VWS V14.01,2013-03-03 03:55:00,
2013-03-02 22:00:00,20.5,16.4,30.07,SE,146,11.0,12.0,84,0.00,,---,0.00,VWS V14.01,2013-03-03 04:00:00,
2013-03-02 22:05:00,20.5,16.4,30.07,SSE,147,6.0,12.0,84,0.00,,---,0.00,VWS V14.01,2013-03-03 04:05:00,
2013-03-02 22:10:00,20.5,16.4,30.07,SE,146,8.0,12.0,84,0.00,,---,0.00,VWS V14.01,2013-03-03 04:10:00,
2013-03-02 22:15:00,20.5,16.4,30.06,SSE,147,6.0,12.0,84,0.00,,---,0.00,VWS V14.01,2013-03-03 04:15:00,
2013-03-02 22:20:00,20.5,16.4,30.06,SSE,147,5.0,12.0,84,0.00,,---,0.00,VWS V14.01,2013-03-03 04:20:00,
2013-03-02 22:25:00,20.5,16.4,30.06,SSE,147,3.0,12.0,84,0.00,,---,0.00,VWS V14.01,2013-03-03 04:25:00,
2013-03-02 22:30:00,20.6,16.5,30.05,SSE,147,1.0,5.0,84,0.00,,---,0.00,VWS V14.01,2013-03-03 04:30:00,
2013-03-02 22:35:00,20.6,16.5,30.05,SSE,147,3.0,6.0,84,0.00,,---,0.00,VWS V14.01,2013-03-03 04:35:00,
2013-03-02 22:40:00,20.6,16.5,30.05,SSE,147,1.0,6.0,84,0.00,,---,0.00,VWS V14.01,2013-03-03 04:40:00,
2013-03-02 22:45:00,20.6,16.5,30.05,SSE,147,0.0,6.0,84,0.00,,---,0.00,VWS V14.01,2013-03-03 04:45:00,
2013-03-02 22:50:00,20.5,16.2,30.05,SSE,147,2.0,6.0,83,0.00,,---,0.00,VWS V14.01,2013-03-03 04:50:00,
2013-03-02 22:55:00,20.5,16.2,30.05,SSE,147,4.0,6.0,83,0.00,,---,0.00,VWS V14.01,2013-03-03 04:55:00,
2013-03-02 23:00:00,20.3,16.0,30.04,SE,146,3.0,5.0,83,0.00,,---,0.00,VWS V14.01,2013-03-03 05:00:00,
2013-03-02 23:05:00,20.0,15.7,30.04,SE,146,5.0,6.0,83,0.00,,---,0.00,VWS V14.01,2013-03-03 05:05:00,
2013-03-02 23:10:00,20.0,15.9,30.04,SE,146,5.0,7.0,84,0.00,,---,0.00,VWS V14.01,2013-03-03 05:10:00,
2013-03-02 23:15:00,19.7,15.7,30.03,SE,146,6.0,7.0,84,0.00,,---,0.00,VWS V14.01,2013-03-03 05:15:00,
2013-03-02 23:20:00,19.7,15.7,30.03,SE,146,5.0,7.0,84,0.00,,---,0.00,VWS V14.01,2013-03-03 05:20:00,
2013-03-02 23:25:00,19.7,15.7,30.03,SE,146,2.0,7.0,84,0.00,,---,0.00,VWS V14.01,2013-03-03 05:25:00,
2013-03-02 23:30:00,19.7,15.7,30.03,SE,146,7.0,9.0,84,0.00,,---,0.00,VWS V14.01,2013-03-03 05:30:00,
2013-03-02 23:35:00,19.5,15.5,30.03,SE,146,3.0,9.0,84,0.00,,---,0.00,VWS V14.01,2013-03-03 05:35:00,
2013-03-02 23:40:00,19.2,15.2,30.03,SE,146,1.0,9.0,84,0.00,,---,0.00,VWS V14.01,2013-03-03 05:40:00,
2013-03-02 23:45:00,19.2,15.2,30.03,SE,146,2.0,9.0,84,0.00,,---,0.00,VWS V14.01,2013-03-03 05:45:00,
2013-03-02 23:50:00,19.2,15.2,30.03,SE,146,0.0,9.0,84,0.00,,---,0.00,VWS V14.01,2013-03-03 05:50:00,
2013-03-02 23:55:00,19.1,15.1,30.03,SE,146,0.0,9.0,84,0.00,,---,0.00,VWS V14.01,2013-03-03 05:55:00,